Flag for U.S.A. Weather past 2 weeks in Juneau, Alaska, U.S.A.

Now
42 °F

Mostly cloudy.


Feels Like: 36 °F
Forecast: 40 / 44 °F
Wind: 12 mph from Southeast

Location: Juneau International Airport

Current Time: Mar 29, 2015 at 5:43:21 AM

Latest Report: Mar 29, 2015 at 4:53 AM


Visibility: 10 mi

Pressure: 29.65 "Hg

Humidity: 89%

Dew point: 39 °F

Location of JuneauLocation

Historic Weather in Juneau — Graph

°F

Juneau temperature yesterday

Maximum temperature yesterday: 47 °F (at 2:53 PM)
Minimum temperature yesterday: 34 °F (at 7:53 AM)
Average temperature yesterday: 40 °F

Past Weeks' High & Low Weather Summary

 TemperatureHumidityPressure
High50 °F (Mar 25, 12:53 PM)100% (Mar 18, 7:53 AM)30.20 "Hg (Mar 18, 7:53 AM)
Low25 °F (Mar 16, 5:53 AM)28% (Mar 25, 12:53 PM)29.54 "Hg (Mar 14, 6:53 AM)
Average38 °F83%29.89 "Hg
* Reported Mar 14 3:53 AM — Mar 29 3:53 AM, Juneau, Weather by CustomWeather, © 2015

Note: Actual official high and low records may vary slightly from our data, if they occured in-between our weather recording intervals... More about our weather records

Advertising

Juneau weather history for previous 24 hours

 ConditionsComfort  
Time TempWeatherWind HumidityBarometerVisibility
3:53 AM
Sun, Mar 29
42 °FMostly cloudy.13 mph85%29.65 "Hg10 mi
2:53 AM42 °FMostly cloudy.16 mph89%29.65 "Hg10 mi
1:53 AM42 °FMostly cloudy.14 mph89%29.65 "Hg10 mi
12:53 AM41 °FMostly cloudy.17 mph93%29.64 "Hg10 mi
11:53 PM
Sat, Mar 28
42 °FMostly cloudy.13 mph85%29.63 "Hg10 mi
10:53 PM41 °FOvercast.12 mph89%29.62 "Hg10 mi
9:53 PM41 °FMostly cloudy.12 mph89%29.61 "Hg10 mi
8:53 PM40 °FLight rain. Mostly cloudy.6 mph89%29.59 "Hg10 mi
7:53 PM41 °FMostly cloudy.8 mph86%29.58 "Hg10 mi
6:53 PM42 °FLight rain. Overcast.12 mph79%29.58 "Hg8 mi
5:53 PM42 °FLight rain. Overcast.13 mph76%29.57 "Hg10 mi
4:53 PM44 °FLight rain. Mostly cloudy.9 mph65%29.57 "Hg10 mi
3:53 PM46 °FLight rain. Overcast.16 mph51%29.59 "Hg10 mi
2:53 PM47 °FMostly cloudy.10 mph46%29.62 "Hg10 mi
1:53 PM46 °FMostly cloudy.10 mph54%29.65 "Hg10 mi
12:53 PM43 °FOvercast.8 mph76%29.69 "Hg10 mi
11:53 AM42 °FMostly cloudy.3 mph82%29.72 "Hg10 mi
10:53 AM40 °FMostly cloudy.3 mph89%29.74 "Hg10 mi
9:53 AM39 °FMostly cloudy.6 mph89%29.75 "Hg10 mi
8:53 AM37 °FMostly cloudy.3 mph93%29.78 "Hg10 mi
7:53 AM34 °FPartly sunny.No wind100%29.79 "Hg10 mi
6:53 AM35 °FPassing clouds.No wind96%29.80 "Hg10 mi
5:53 AM36 °FMostly cloudy.No wind97%29.81 "Hg10 mi
Weather by CustomWeather, © 2015

See weather overviewHow to use our weather pages